Location: Chillicothe
(39.7950°N, 93.5520°W)
Time: 10:19:00
(UTC-06:00)

BEESAT - Pass Details

Date: 25 November 2019
Orbit: 700 x 709 km, 98.6° (Epoch: 10 December)

Event Time Altitude Azimuth Distance (km) Brightness Sun altitude
Rises 17:23:19 0° 19° (NNE) 3,098 ? -6.3°
Reaches altitude 10° 17:25:38 10° 24° (NNE) 2,177 ? -6.7°
Maximum altitude 17:30:16 50° 100° (E) 899 ? -7.5°
Drops below altitude 10° 17:34:52 10° 176° (S) 2,167 ? -8.3°
Sets 17:37:11 0° 181° (S) 3,082 ? -8.8°
